"Period start","avg(HW err(1)/warn(2) (#))","avg(Visibility (m))","avg(Weather code (#))","avg(Precip intensity (mm/h))","min(HW err(1)/warn(2) (#))","max(HW err(1)/warn(2) (#))","std(HW err(1)/warn(2) (#))","med(HW err(1)/warn(2) (#))","min(Visibility (m))","max(Visibility (m))","std(Visibility (m))","med(Visibility (m))","min(Weather code (#))","max(Weather code (#))","std(Weather code (#))","med(Weather code (#))","min(Precip intensity (mm/h))","max(Precip intensity (mm/h))","std(Precip intensity (mm/h))","med(Precip intensity (mm/h))"
2016-09-23 00:00:00,2,46015,65,0.01,2,2,0,2,25614,50000,7815,50000,0,77,22,71,0.00,0.05,0.02,0.00
2016-09-23 00:10:00,2,48521,0,0.00,2,2,0,2,45483,50000,1689,49440,0,0,0,0,0.00,0.00,0.00,0.00
2016-09-23 00:20:00,2,49928,0,0.00,2,2,0,2,49637,50000,145,50000,0,0,0,0,0.00,0.00,0.00,0.00
2016-09-23 00:30:00,2,49853,0,0.00,2,2,0,2,48530,50000,441,50000,0,0,0,0,0.00,0.00,0.00,0.00
2016-09-23 00:40:00,2,49950,0,0.00,2,2,0,2,49503,50000,149,50000,0,0,0,0,0.00,0.00,0.00,0.00
2016-09-23 00:50:00,2,48995,0,0.00,2,2,0,2,44221,50000,1973,50000,0,0,0,0,0.00,0.00,0.00,0.00
2016-09-23 01:00:00,2,49668,0,0.00,2,2,0,2,46682,50000,995,50000,0,0,0,0,0.00,0.00,0.00,0.00
2016-09-23 01:10:00,2,49592,0,0.00,2,2,0,2,47578,50000,834,50000,0,0,0,0,0.00,0.00,0.00,0.00
2016-09-23 01:20:00,2,49683,0,0.00,2,2,0,2,47600,50000,731,50000,0,0,0,0,0.00,0.00,0.00,0.00
2016-09-23 01:30:00,2,49428,0,0.00,2,2,0,2,46957,50000,1148,50000,0,0,0,0,0.00,0.00,0.00,0.00
2016-09-23 01:40:00,2,49446,0,0.00,2,2,0,2,45547,50000,1340,50000,0,0,0,0,0.00,0.00,0.00,0.00
2016-09-23 01:50:00,2,47278,0,0.00,2,2,0,2,43205,50000,2496,47832,0,0,0,0,0.00,0.00,0.00,0.00
2016-09-23 02:00:00,2,48534,0,0.00,2,2,0,2,41843,50000,2657,50000,0,0,0,0,0.00,0.00,0.00,0.00
2016-09-23 02:10:00,2,48953,0,0.00,2,2,0,2,44881,50000,2021,50000,0,0,0,0,0.00,0.00,0.00,0.00
2016-09-23 02:20:00,2,30885,28,0.03,2,2,0,2,14303,50000,13709,26921,0,71,24,41,0.00,0.25,0.07,0.00
2016-09-23 02:30:00,2,34830,71,0.03,2,2,0,2,17641,50000,9723,35017,71,71,0,71,0.00,0.20,0.06,0.00
2016-09-23 02:40:00,2,45123,14,0.00,2,2,0,2,35844,50000,5131,47663,0,71,28,0,0.00,0.00,0.00,0.00
2016-09-23 02:50:00,2,44766,16,0.00,2,2,0,2,32924,50000,6898,49699,0,41,20,0,0.00,0.00,0.00,0.00
2016-09-23 03:00:00,2,49890,0,0.00,2,2,0,2,48898,50000,331,50000,0,0,0,0,0.00,0.00,0.00,0.00
2016-09-23 03:10:00,2,49198,0,0.00,2,2,0,2,43993,50000,1780,50000,0,0,0,0,0.00,0.00,0.00,0.00
2016-09-23 03:20:00,2,48574,0,0.00,2,2,0,2,42150,50000,2855,50000,0,0,0,0,0.00,0.00,0.00,0.00
2016-09-23 03:30:00,2,49902,0,0.00,2,2,0,2,49024,50000,293,50000,0,0,0,0,0.00,0.00,0.00,0.00
2016-09-23 03:40:00,2,40532,8,0.02,2,2,0,2,11078,50000,14179,49880,0,41,16,0,0.00,0.10,0.03,0.00
2016-09-23 03:50:00,2,20523,62,0.04,2,2,0,2,12570,45780,10866,14688,41,71,14,71,0.00,0.20,0.06,0.03
2016-09-23 04:00:00,2,26642,71,0.06,2,2,0,2,9266,42868,11076,27167,71,71,0,71,0.00,0.25,0.10,0.00
2016-09-23 04:10:00,2,33830,73,0.03,2,2,0,2,20384,47913,8449,32645,71,77,3,71,0.00,0.20,0.06,0.00
2016-09-23 04:20:00,2,8991,71,0.20,2,2,0,2,3575,20656,5339,6656,71,71,0,71,0.00,0.65,0.21,0.12
2016-09-23 04:30:00,2,7018,71,0.48,2,2,0,2,1832,15394,4194,7161,71,71,0,71,0.00,1.50,0.53,0.30
2016-09-23 04:40:00,2,8360,71,0.10,2,2,0,2,4100,15423,3394,7558,71,71,0,71,0.00,0.20,0.08,0.10
2016-09-23 04:50:00,2,22886,72,0.08,2,2,0,2,5968,39745,10170,23244,71,77,2,71,0.00,0.40,0.11,0.05
2016-09-23 05:00:00,2,7717,75,0.17,2,2,0,2,3968,19894,4415,6518,71,77,3,77,0.00,0.60,0.19,0.08
2016-09-23 05:10:00,2,34544,71,0.00,2,2,0,2,11314,49831,12290,37818,71,71,0,71,0.00,0.00,0.00,0.00
2016-09-23 05:20:00,2,33981,46,0.00,2,2,0,2,15966,48483,10470,37128,0,77,38,77,0.00,0.00,0.00,0.00
2016-09-23 05:30:00,2,49792,0,0.00,2,2,0,2,47923,50000,623,50000,0,0,0,0,0.00,0.00,0.00,0.00
2016-09-23 05:40:00,2,49999,0,0.00,2,2,0,2,49992,50000,2,50000,0,0,0,0,0.00,0.00,0.00,0.00
2016-09-23 05:50:00,2,49621,0,0.00,2,2,0,2,46838,50000,946,50000,0,0,0,0,0.00,0.00,0.00,0.00
2016-09-23 06:00:00,2,47247,8,0.00,2,2,0,2,42862,50000,2395,47173,0,41,16,0,0.00,0.00,0.00,0.00
2016-09-23 06:10:00,2,31928,41,0.00,2,2,0,2,23255,42660,6602,30156,41,41,0,41,0.00,0.00,0.00,0.00
2016-09-23 06:20:00,2,44343,0,0.00,2,2,0,2,30332,50000,6964,47334,0,0,0,0,0.00,0.00,0.00,0.00
2016-09-23 06:30:00,2,38719,0,0.00,2,2,0,2,25812,46972,6264,39046,0,0,0,0,0.00,0.00,0.00,0.00
2016-09-23 06:40:00,2,44812,0,0.00,2,2,0,2,28426,50000,6289,46302,0,0,0,0,0.00,0.00,0.00,0.00
2016-09-23 06:50:00,2,33679,33,0.00,2,2,0,2,20939,49040,7729,35004,0,41,16,41,0.00,0.00,0.00,0.00
2016-09-23 07:00:00,2,33818,41,0.01,2,2,0,2,21544,50000,9218,31506,41,41,0,41,0.00,0.05,0.02,0.00
2016-09-23 07:10:00,2,44754,8,0.00,2,2,0,2,38210,50000,4172,43488,0,41,16,0,0.00,0.00,0.00,0.00
2016-09-23 07:20:00,2,49585,0,0.00,2,2,0,2,46241,50000,1121,50000,0,0,0,0,0.00,0.00,0.00,0.00
2016-09-23 07:30:00,2,49988,0,0.00,2,2,0,2,49883,50000,35,50000,0,0,0,0,0.00,0.00,0.00,0.00
2016-09-23 07:40:00,2,48723,0,0.00,2,2,0,2,42550,50000,2512,50000,0,0,0,0,0.00,0.00,0.00,0.00
2016-09-23 07:50:00,2,47183,0,0.00,2,2,0,2,23252,50000,7988,50000,0,0,0,0,0.00,0.00,0.00,0.00
2016-09-23 08:00:00,2,36325,0,0.00,2,2,0,2,22499,50000,12098,33846,0,0,0,0,0.00,0.00,0.00,0.00
2016-09-23 08:10:00,2,37430,0,0.00,2,2,0,2,23235,50000,10104,38180,0,0,0,0,0.00,0.00,0.00,0.00
2016-09-23 08:20:00,2,34131,0,0.00,2,2,0,2,7565,50000,17511,43578,0,0,0,0,0.00,0.00,0.00,0.00
2016-09-23 08:30:00,2,8830,0,0.00,2,2,0,2,6219,12206,2014,9082,0,0,0,0,0.00,0.00,0.00,0.00
2016-09-23 08:40:00,2,28587,0,0.00,2,2,0,2,10155,50000,15737,28760,0,0,0,0,0.00,0.00,0.00,0.00
2016-09-23 08:50:00,2,48922,0,0.00,2,2,0,2,40768,50000,2757,50000,0,0,0,0,0.00,0.00,0.00,0.00
2016-09-23 09:00:00,2,12700,0,0.00,2,2,0,2,7138,29050,6520,10122,0,0,0,0,0.00,0.00,0.00,0.00
2016-09-23 09:10:00,2,6160,9,0.00,2,2,0,2,5255,6835,477,6213,0,10,3,10,0.00,0.00,0.00,0.00
2016-09-23 09:20:00,2,31185,4,0.00,2,2,0,2,6354,50000,17874,34988,0,10,5,0,0.00,0.00,0.00,0.00
2016-09-23 09:30:00,2,46285,0,0.00,2,2,0,2,36101,50000,4899,48734,0,0,0,0,0.00,0.00,0.00,0.00
2016-09-23 09:40:00,2,50000,0,0.00,2,2,0,2,50000,50000,0,50000,0,0,0,0,0.00,0.00,0.00,0.00
2016-09-23 09:50:00,2,38847,0,0.00,2,2,0,2,10853,50000,12455,41807,0,0,0,0,0.00,0.00,0.00,0.00
2016-09-23 10:00:00,2,5991,5,0.00,2,2,0,2,5350,7884,719,5769,0,10,5,5,0.00,0.00,0.00,0.00
2016-09-23 10:10:00,2,9063,7,0.00,2,2,0,2,6749,11507,1365,9212,0,10,5,10,0.00,0.00,0.00,0.00
2016-09-23 10:20:00,2,38878,0,0.00,2,2,0,2,14943,50000,13061,46127,0,0,0,0,0.00,0.00,0.00,0.00
2016-09-23 10:30:00,2,49973,0,0.00,2,2,0,2,49731,50000,81,50000,0,0,0,0,0.00,0.00,0.00,0.00
2016-09-23 10:40:00,2,50000,0,0.00,2,2,0,2,50000,50000,0,50000,0,0,0,0,0.00,0.00,0.00,0.00
2016-09-23 10:50:00,2,50000,0,0.00,2,2,0,2,50000,50000,0,50000,0,0,0,0,0.00,0.00,0.00,0.00
2016-09-23 11:00:00,2,50000,0,0.00,2,2,0,2,50000,50000,0,50000,0,0,0,0,0.00,0.00,0.00,0.00
2016-09-23 11:10:00,2,50000,0,0.00,2,2,0,2,50000,50000,0,50000,0,0,0,0,0.00,0.00,0.00,0.00
2016-09-23 11:20:00,2,50000,0,0.00,2,2,0,2,50000,50000,0,50000,0,0,0,0,0.00,0.00,0.00,0.00
2016-09-23 11:30:00,2,50000,0,0.00,2,2,0,2,50000,50000,0,50000,0,0,0,0,0.00,0.00,0.00,0.00
2016-09-23 11:40:00,2,50000,0,0.00,2,2,0,2,50000,50000,0,50000,0,0,0,0,0.00,0.00,0.00,0.00
2016-09-23 11:50:00,2,50000,0,0.00,2,2,0,2,50000,50000,0,50000,0,0,0,0,0.00,0.00,0.00,0.00
2016-09-23 12:00:00,2,50000,0,0.00,2,2,0,2,50000,50000,0,50000,0,0,0,0,0.00,0.00,0.00,0.00
2016-09-23 12:10:00,2,50000,0,0.00,2,2,0,2,50000,50000,0,50000,0,0,0,0,0.00,0.00,0.00,0.00
2016-09-23 12:20:00,2,50000,0,0.00,2,2,0,2,50000,50000,0,50000,0,0,0,0,0.00,0.00,0.00,0.00
2016-09-23 12:30:00,2,50000,0,0.00,2,2,0,2,50000,50000,0,50000,0,0,0,0,0.00,0.00,0.00,0.00
2016-09-23 12:40:00,2,50000,0,0.00,2,2,0,2,50000,50000,0,50000,0,0,0,0,0.00,0.00,0.00,0.00
2016-09-23 12:50:00,2,50000,0,0.00,2,2,0,2,50000,50000,0,50000,0,0,0,0,0.00,0.00,0.00,0.00
2016-09-23 13:00:00,2,50000,0,0.00,2,2,0,2,50000,50000,0,50000,0,0,0,0,0.00,0.00,0.00,0.00
2016-09-23 13:10:00,2,50000,0,0.00,2,2,0,2,50000,50000,0,50000,0,0,0,0,0.00,0.00,0.00,0.00
2016-09-23 13:20:00,2,50000,0,0.00,2,2,0,2,50000,50000,0,50000,0,0,0,0,0.00,0.00,0.00,0.00
2016-09-23 13:30:00,2,50000,0,0.00,2,2,0,2,50000,50000,0,50000,0,0,0,0,0.00,0.00,0.00,0.00
2016-09-23 13:40:00,2,50000,0,0.00,2,2,0,2,50000,50000,0,50000,0,0,0,0,0.00,0.00,0.00,0.00
2016-09-23 13:50:00,2,50000,0,0.00,2,2,0,2,50000,50000,0,50000,0,0,0,0,0.00,0.00,0.00,0.00
2016-09-23 14:00:00,2,50000,0,0.00,2,2,0,2,50000,50000,0,50000,0,0,0,0,0.00,0.00,0.00,0.00
2016-09-23 14:10:00,2,50000,0,0.00,2,2,0,2,50000,50000,0,50000,0,0,0,0,0.00,0.00,0.00,0.00
2016-09-23 14:20:00,2,50000,0,0.00,2,2,0,2,50000,50000,0,50000,0,0,0,0,0.00,0.00,0.00,0.00
2016-09-23 14:30:00,2,50000,0,0.00,2,2,0,2,50000,50000,0,50000,0,0,0,0,0.00,0.00,0.00,0.00
2016-09-23 14:40:00,2,50000,0,0.00,2,2,0,2,50000,50000,0,50000,0,0,0,0,0.00,0.00,0.00,0.00
2016-09-23 14:50:00,2,50000,0,0.00,2,2,0,2,50000,50000,0,50000,0,0,0,0,0.00,0.00,0.00,0.00
2016-09-23 15:00:00,2,50000,0,0.00,2,2,0,2,50000,50000,0,50000,0,0,0,0,0.00,0.00,0.00,0.00
2016-09-23 15:10:00,2,50000,0,0.00,2,2,0,2,50000,50000,0,50000,0,0,0,0,0.00,0.00,0.00,0.00
2016-09-23 15:20:00,2,50000,0,0.00,2,2,0,2,50000,50000,0,50000,0,0,0,0,0.00,0.00,0.00,0.00
2016-09-23 15:30:00,2,50000,0,0.00,2,2,0,2,50000,50000,0,50000,0,0,0,0,0.00,0.00,0.00,0.00
2016-09-23 15:40:00,2,50000,0,0.00,2,2,0,2,50000,50000,0,50000,0,0,0,0,0.00,0.00,0.00,0.00
2016-09-23 15:50:00,2,50000,0,0.00,2,2,0,2,50000,50000,0,50000,0,0,0,0,0.00,0.00,0.00,0.00
2016-09-23 16:00:00,2,50000,0,0.00,2,2,0,2,50000,50000,0,50000,0,0,0,0,0.00,0.00,0.00,0.00
2016-09-23 16:10:00,2,50000,0,0.00,2,2,0,2,50000,50000,0,50000,0,0,0,0,0.00,0.00,0.00,0.00
2016-09-23 16:20:00,2,50000,0,0.00,2,2,0,2,50000,50000,0,50000,0,0,0,0,0.00,0.00,0.00,0.00
2016-09-23 16:30:00,2,50000,0,0.00,2,2,0,2,50000,50000,0,50000,0,0,0,0,0.00,0.00,0.00,0.00
2016-09-23 16:40:00,2,50000,0,0.00,2,2,0,2,50000,50000,0,50000,0,0,0,0,0.00,0.00,0.00,0.00
2016-09-23 16:50:00,2,50000,0,0.00,2,2,0,2,50000,50000,0,50000,0,0,0,0,0.00,0.00,0.00,0.00
2016-09-23 17:00:00,2,50000,0,0.00,2,2,0,2,50000,50000,0,50000,0,0,0,0,0.00,0.00,0.00,0.00
2016-09-23 17:10:00,2,50000,0,0.00,2,2,0,2,50000,50000,0,50000,0,0,0,0,0.00,0.00,0.00,0.00
2016-09-23 17:20:00,2,50000,0,0.00,2,2,0,2,50000,50000,0,50000,0,0,0,0,0.00,0.00,0.00,0.00
2016-09-23 17:30:00,2,50000,0,0.00,2,2,0,2,50000,50000,0,50000,0,0,0,0,0.00,0.00,0.00,0.00
2016-09-23 17:40:00,2,50000,0,0.00,2,2,0,2,50000,50000,0,50000,0,0,0,0,0.00,0.00,0.00,0.00
2016-09-23 17:50:00,2,50000,0,0.00,2,2,0,2,50000,50000,0,50000,0,0,0,0,0.00,0.00,0.00,0.00
2016-09-23 18:00:00,2,44354,0,0.00,2,2,0,2,11639,50000,12167,50000,0,0,0,0,0.00,0.00,0.00,0.00
2016-09-23 18:10:00,2,43703,58,0.01,2,2,0,2,32784,50000,6805,47298,0,71,23,71,0.00,0.05,0.02,0.00
2016-09-23 18:20:00,2,35539,28,0.01,2,2,0,2,16630,50000,11324,32480,0,71,35,0,0.00,0.05,0.02,0.00
2016-09-23 18:30:00,2,38228,58,0.01,2,2,0,2,20290,50000,10395,40410,0,77,29,71,0.00,0.10,0.03,0.00
2016-09-23 18:40:00,2,29326,57,0.06,2,2,0,2,12871,50000,11665,26242,0,71,28,71,0.00,0.35,0.11,0.00
2016-09-23 18:50:00,2,10693,71,0.34,2,2,0,2,5003,18456,4299,9846,71,71,0,71,0.05,0.65,0.22,0.25
2016-09-23 19:00:00,2,14464,71,0.21,2,2,0,2,6610,26476,6194,13994,71,71,0,71,0.00,0.65,0.22,0.10
2016-09-23 19:10:00,2,25164,73,0.04,2,2,0,2,17053,35235,5645,24317,71,77,3,71,0.00,0.20,0.06,0.00
2016-09-23 19:20:00,2,13436,71,0.24,2,2,0,2,2885,25434,7796,12716,71,71,0,71,0.00,0.95,0.30,0.08
2016-09-23 19:30:00,2,9128,71,0.27,2,2,0,2,2748,13804,3262,8894,71,71,0,71,0.05,0.55,0.17,0.20
2016-09-23 19:40:00,2,7561,71,0.45,2,2,0,2,3961,13942,2924,6722,71,71,0,71,0.05,0.85,0.25,0.45
2016-09-23 19:50:00,2,8413,71,0.38,2,2,0,2,4336,11938,2408,8458,71,71,0,71,0.10,1.20,0.32,0.35
2016-09-23 20:00:00,2,13473,71,0.17,2,2,0,2,7251,19275,3902,13477,71,71,0,71,0.05,0.50,0.14,0.15
2016-09-23 20:10:00,2,21015,71,0.10,2,2,0,2,10467,31749,6034,21145,71,71,0,71,0.00,0.45,0.14,0.05
2016-09-23 20:20:00,2,27031,72,0.04,2,2,0,2,15450,44342,8545,26856,71,77,2,71,0.00,0.20,0.06,0.03
2016-09-23 20:30:00,2,29993,71,0.07,2,2,0,2,12274,50000,11950,28628,71,71,0,71,0.00,0.20,0.08,0.08
2016-09-23 20:40:00,2,35436,72,0.03,2,2,0,2,23250,50000,8623,34821,71,77,2,71,0.00,0.15,0.05,0.00
2016-09-23 20:50:00,2,41582,0,0.00,2,2,0,2,15738,50000,11697,50000,0,0,0,0,0.00,0.00,0.00,0.00
2016-09-23 21:00:00,2,50000,0,0.00,2,2,0,2,50000,50000,0,50000,0,0,0,0,0.00,0.00,0.00,0.00
2016-09-23 21:10:00,2,50000,0,0.00,2,2,0,2,50000,50000,0,50000,0,0,0,0,0.00,0.00,0.00,0.00
2016-09-23 21:20:00,2,50000,0,0.00,2,2,0,2,50000,50000,0,50000,0,0,0,0,0.00,0.00,0.00,0.00
2016-09-23 21:30:00,2,50000,0,0.00,2,2,0,2,50000,50000,0,50000,0,0,0,0,0.00,0.00,0.00,0.00
2016-09-23 21:40:00,2,50000,0,0.00,2,2,0,2,50000,50000,0,50000,0,0,0,0,0.00,0.00,0.00,0.00
2016-09-23 21:50:00,2,50000,0,0.00,2,2,0,2,50000,50000,0,50000,0,0,0,0,0.00,0.00,0.00,0.00
2016-09-23 22:00:00,2,39313,8,0.03,2,2,0,2,6200,50000,16454,50000,0,40,16,0,0.00,0.20,0.06,0.00
2016-09-23 22:10:00,2,7315,71,0.34,2,2,0,2,4546,12027,2349,6619,71,71,0,71,0.00,0.70,0.25,0.35
2016-09-23 22:20:00,2,8689,71,0.37,2,2,0,2,5515,13560,2228,8053,71,71,0,71,0.05,0.65,0.21,0.38
2016-09-23 22:30:00,2,10324,71,0.27,2,2,0,2,5765,14844,3122,10030,71,71,0,71,0.00,0.70,0.20,0.28
2016-09-23 22:40:00,2,26412,71,0.05,2,2,0,2,15613,41428,7242,26498,71,71,0,71,0.00,0.15,0.06,0.03
2016-09-23 22:50:00,2,27885,72,0.03,2,2,0,2,20381,33490,4040,29128,71,77,2,71,0.00,0.20,0.06,0.00
2016-09-23 23:00:00,2,48663,14,0.00,2,2,0,2,42538,50000,2427,50000,0,71,28,0,0.00,0.00,0.00,0.00
2016-09-23 23:10:00,2,49194,0,0.00,2,2,0,2,44448,50000,1750,50000,0,0,0,0,0.00,0.00,0.00,0.00
2016-09-23 23:20:00,2,45794,0,0.00,2,2,0,2,25564,50000,7599,50000,0,0,0,0,0.00,0.00,0.00,0.00
2016-09-23 23:30:00,2,7016,65,0.38,2,2,0,2,4186,16838,3590,5774,40,71,12,71,0.00,0.95,0.27,0.33
2016-09-23 23:40:00,2,2794,71,1.19,2,2,0,2,1666,5099,960,2486,71,71,0,71,0.40,2.65,0.64,1.12
2016-09-23 23:50:00,2,4571,71,0.67,2,2,0,2,3039,6153,1000,4797,71,71,0,71,0.20,1.55,0.46,0.50
